Location: Arroyo de Valdeoliva
(40.1604°N, 4.9878°W)
Time: 09:39:59
(UTC+00:00)

BlueWalker 3 - Pass Details

Date: 19 February 2026
Orbit: 451 x 458 km, 53.2° (Epoch: 6 March)

Event Time Altitude Azimuth Distance (km) Brightness Sun altitude
Rises 06:33:12 0° 182° (S) 2,458 5.5 -7.3°
Reaches altitude 10° 06:36:23 10° 151° (SSE) 1,590 5.1 -6.7°
Maximum altitude 06:37:54 12° 126° (SE) 1,456 5.4 -6.5°
Drops below altitude 10° 06:39:25 10° 101° (E) 1,593 6.4 -6.2°
Sets 06:42:36 0° 70° (ENE) 2,470 6.6 -5.6°
